Year,Month,Day,Hour,Minute,Value (Times are PST for temperature in C)
2016,07,14,00,00,12.20
2016,07,14,00,01,12.20
2016,07,14,00,02,12.20
2016,07,14,00,03,12.20
2016,07,14,00,04,12.20
2016,07,14,00,05,12.20
2016,07,14,00,06,12.20
2016,07,14,00,07,12.10
2016,07,14,00,08,12.10
2016,07,14,00,09,12.10
2016,07,14,00,10,12.10
2016,07,14,00,11,12.20
2016,07,14,00,12,12.20
2016,07,14,00,13,12.20
2016,07,14,00,14,12.20
2016,07,14,00,15,12.20
2016,07,14,00,16,12.20
2016,07,14,00,17,12.20
2016,07,14,00,18,12.20
2016,07,14,00,19,12.20
2016,07,14,00,20,12.30
2016,07,14,00,21,12.30
2016,07,14,00,22,12.30
2016,07,14,00,23,12.20
2016,07,14,00,24,12.20
2016,07,14,00,25,12.20
2016,07,14,00,26,12.20
2016,07,14,00,27,12.20
2016,07,14,00,28,12.20
2016,07,14,00,29,12.20
2016,07,14,00,30,12.20
2016,07,14,00,31,12.10
2016,07,14,00,32,12.10
2016,07,14,00,33,12.10
2016,07,14,00,34,12.10
2016,07,14,00,35,12.10
2016,07,14,00,36,12.10
2016,07,14,00,37,12.10
2016,07,14,00,38,12.10
2016,07,14,00,39,12.10
2016,07,14,00,40,12.10
2016,07,14,00,41,12.10
2016,07,14,00,42,12.10
2016,07,14,00,43,12.10
2016,07,14,00,44,12.10
2016,07,14,00,45,12.10
2016,07,14,00,46,12.10
2016,07,14,00,47,12.10
2016,07,14,00,48,12.10
2016,07,14,00,49,12.10
2016,07,14,00,50,12.10
2016,07,14,00,51,12.10
2016,07,14,00,52,12.10
2016,07,14,00,53,12.10
2016,07,14,00,54,12.10
2016,07,14,00,55,12.10
2016,07,14,00,56,12.10
2016,07,14,00,57,12.10
2016,07,14,00,58,12.10
2016,07,14,00,59,12.00
2016,07,14,01,00,12.10
2016,07,14,01,01,12.10
2016,07,14,01,02,12.10
2016,07,14,01,03,12.10
2016,07,14,01,04,12.10
2016,07,14,01,05,12.10
2016,07,14,01,06,12.10
2016,07,14,01,07,12.20
2016,07,14,01,08,12.20
2016,07,14,01,09,12.30
2016,07,14,01,10,12.40
2016,07,14,01,11,12.50
2016,07,14,01,12,12.60
2016,07,14,01,13,12.70
2016,07,14,01,14,12.80
2016,07,14,01,15,12.80
2016,07,14,01,16,12.90
2016,07,14,01,17,13.00
2016,07,14,01,18,13.00
2016,07,14,01,19,13.10
2016,07,14,01,20,13.20
2016,07,14,01,21,13.20
2016,07,14,01,22,13.30
2016,07,14,01,23,13.30
2016,07,14,01,24,13.40
2016,07,14,01,25,13.50
2016,07,14,01,26,13.60
2016,07,14,01,27,13.70
2016,07,14,01,28,13.70
2016,07,14,01,29,13.80
2016,07,14,01,30,13.80
2016,07,14,01,31,13.90
2016,07,14,01,32,13.90
2016,07,14,01,33,14.00
2016,07,14,01,34,14.00
2016,07,14,01,35,14.10
2016,07,14,01,36,14.10
2016,07,14,01,37,14.20
2016,07,14,01,38,14.20
2016,07,14,01,39,14.20
2016,07,14,01,40,14.20
2016,07,14,01,41,14.30
2016,07,14,01,42,14.30
2016,07,14,01,43,14.30
2016,07,14,01,44,14.30
2016,07,14,01,45,14.30
2016,07,14,01,46,14.40
2016,07,14,01,47,14.40
2016,07,14,01,48,14.40
2016,07,14,01,49,14.40
2016,07,14,01,50,14.40
2016,07,14,01,51,14.40
2016,07,14,01,52,14.40
2016,07,14,01,53,14.50
2016,07,14,01,54,14.50
2016,07,14,01,55,14.50
2016,07,14,01,56,14.60
2016,07,14,01,57,14.60
2016,07,14,01,58,14.60
2016,07,14,01,59,14.70
2016,07,14,02,00,14.70
2016,07,14,02,01,14.80
2016,07,14,02,02,14.80
2016,07,14,02,03,14.80
2016,07,14,02,04,14.80
2016,07,14,02,05,14.90
2016,07,14,02,06,14.90
2016,07,14,02,07,14.90
2016,07,14,02,08,15.00
2016,07,14,02,09,15.00
2016,07,14,02,10,15.10
2016,07,14,02,11,15.10
2016,07,14,02,12,15.10
2016,07,14,02,13,15.20
2016,07,14,02,14,15.20
2016,07,14,02,15,15.20
2016,07,14,02,16,15.20
2016,07,14,02,17,15.10
2016,07,14,02,18,15.10
2016,07,14,02,19,15.10
2016,07,14,02,20,15.10
2016,07,14,02,21,15.10
2016,07,14,02,22,15.10
2016,07,14,02,23,15.20
2016,07,14,02,24,15.20
2016,07,14,02,25,15.20
2016,07,14,02,26,15.20
2016,07,14,02,27,15.20
2016,07,14,02,28,15.20
2016,07,14,02,29,15.20
2016,07,14,02,30,15.20
2016,07,14,02,31,15.20
2016,07,14,02,32,15.20
2016,07,14,02,33,15.20
2016,07,14,02,34,15.20
2016,07,14,02,35,15.20
2016,07,14,02,36,15.20
2016,07,14,02,37,15.20
2016,07,14,02,38,15.20
2016,07,14,02,39,15.20
2016,07,14,02,40,15.20
2016,07,14,02,41,15.20
2016,07,14,02,42,15.10
2016,07,14,02,43,15.10
2016,07,14,02,44,15.10
2016,07,14,02,45,15.10
2016,07,14,02,46,15.10
2016,07,14,02,47,15.00
2016,07,14,02,48,15.00
2016,07,14,02,49,14.90
2016,07,14,02,50,14.90
2016,07,14,02,51,14.90
2016,07,14,02,52,14.90
2016,07,14,02,53,14.90
2016,07,14,02,54,14.90
2016,07,14,02,55,14.90
2016,07,14,02,56,14.90
2016,07,14,02,57,14.90
2016,07,14,02,58,14.80
2016,07,14,02,59,14.90
2016,07,14,03,00,14.90
2016,07,14,03,01,14.90
2016,07,14,03,02,14.90
2016,07,14,03,03,14.90
2016,07,14,03,04,14.90
2016,07,14,03,05,14.90
2016,07,14,03,06,14.90
2016,07,14,03,07,14.90
2016,07,14,03,08,14.90
2016,07,14,03,09,14.90
2016,07,14,03,10,14.90
2016,07,14,03,11,14.80
2016,07,14,03,12,14.80
2016,07,14,03,13,14.80
2016,07,14,03,14,14.80
2016,07,14,03,15,14.80
2016,07,14,03,16,14.80
2016,07,14,03,17,14.80
2016,07,14,03,18,14.80
2016,07,14,03,19,14.80
2016,07,14,03,20,14.80
2016,07,14,03,21,14.80
2016,07,14,03,22,14.80
2016,07,14,03,23,14.70
2016,07,14,03,24,14.70
2016,07,14,03,25,14.70
2016,07,14,03,26,14.70
2016,07,14,03,27,14.70
2016,07,14,03,28,14.70
2016,07,14,03,29,14.60
2016,07,14,03,30,14.60
2016,07,14,03,31,14.60
2016,07,14,03,32,14.60
2016,07,14,03,33,14.50
2016,07,14,03,34,14.50
2016,07,14,03,35,14.40
2016,07,14,03,36,14.40
2016,07,14,03,37,14.40
2016,07,14,03,38,14.40
2016,07,14,03,39,14.40
2016,07,14,03,40,14.40
2016,07,14,03,41,14.40
2016,07,14,03,42,14.40
2016,07,14,03,43,14.40
2016,07,14,03,44,14.40
2016,07,14,03,45,14.40
2016,07,14,03,46,14.50
2016,07,14,03,47,14.50
2016,07,14,03,48,14.60
2016,07,14,03,49,14.60
2016,07,14,03,50,14.70
2016,07,14,03,51,14.70
2016,07,14,03,52,14.70
2016,07,14,03,53,14.80
2016,07,14,03,54,14.80
2016,07,14,03,55,14.90
2016,07,14,03,56,14.90
2016,07,14,03,57,14.90
2016,07,14,03,58,15.00
2016,07,14,03,59,15.00
2016,07,14,04,00,15.10
2016,07,14,04,01,15.10
2016,07,14,04,02,15.10
2016,07,14,04,03,15.10
2016,07,14,04,04,15.10
2016,07,14,04,05,15.10
2016,07,14,04,06,15.10
2016,07,14,04,07,15.20
2016,07,14,04,08,15.20
2016,07,14,04,09,15.20
2016,07,14,04,10,15.20
2016,07,14,04,11,15.30
2016,07,14,04,12,15.30
2016,07,14,04,13,15.30
2016,07,14,04,14,15.30
2016,07,14,04,15,15.30
2016,07,14,04,16,15.30
2016,07,14,04,17,15.30
2016,07,14,04,18,15.30
2016,07,14,04,19,15.30
2016,07,14,04,20,15.30
2016,07,14,04,21,15.20
2016,07,14,04,22,15.20
2016,07,14,04,23,15.20
2016,07,14,04,24,15.20
2016,07,14,04,25,15.20
2016,07,14,04,26,15.20
2016,07,14,04,27,15.20
2016,07,14,04,28,15.20
2016,07,14,04,29,15.20
2016,07,14,04,30,15.20
2016,07,14,04,31,15.20
2016,07,14,04,32,15.20
2016,07,14,04,33,15.20
2016,07,14,04,34,15.20
2016,07,14,04,35,15.20
2016,07,14,04,36,15.20
2016,07,14,04,37,15.20
2016,07,14,04,38,15.20
2016,07,14,04,39,15.20
2016,07,14,04,40,15.20
2016,07,14,04,41,15.20
2016,07,14,04,42,15.20
2016,07,14,04,43,15.20
2016,07,14,04,44,15.20
2016,07,14,04,45,15.20
2016,07,14,04,46,15.20
2016,07,14,04,47,15.20
2016,07,14,04,48,15.10
2016,07,14,04,49,15.10
2016,07,14,04,50,15.10
2016,07,14,04,51,15.10
2016,07,14,04,52,15.00
2016,07,14,04,53,15.00
2016,07,14,04,54,15.00
2016,07,14,04,55,14.90
2016,07,14,04,56,14.90
2016,07,14,04,57,14.90
2016,07,14,04,58,14.80
2016,07,14,04,59,14.80
2016,07,14,05,00,14.70
2016,07,14,05,01,14.70
2016,07,14,05,02,14.60
2016,07,14,05,03,14.60
2016,07,14,05,04,14.60
2016,07,14,05,05,14.60
2016,07,14,05,06,14.50
2016,07,14,05,07,14.50
2016,07,14,05,08,14.50
2016,07,14,05,09,14.50
2016,07,14,05,10,14.50
2016,07,14,05,11,14.50
2016,07,14,05,12,14.50
2016,07,14,05,13,14.60
2016,07,14,05,14,14.60
2016,07,14,05,15,14.60
2016,07,14,05,16,14.70
2016,07,14,05,17,14.70
2016,07,14,05,18,14.70
2016,07,14,05,19,14.80
2016,07,14,05,20,14.80
2016,07,14,05,21,14.80
2016,07,14,05,22,14.80
2016,07,14,05,23,14.80
2016,07,14,05,24,14.90
2016,07,14,05,25,14.90
2016,07,14,05,26,14.90
2016,07,14,05,27,14.90
2016,07,14,05,28,14.90
2016,07,14,05,29,15.00
2016,07,14,05,30,15.00
2016,07,14,05,31,15.00
2016,07,14,05,32,15.00
2016,07,14,05,33,15.00
2016,07,14,05,34,15.00
2016,07,14,05,35,14.90
2016,07,14,05,36,14.90
2016,07,14,05,37,14.90
2016,07,14,05,38,14.90
2016,07,14,05,39,14.90
2016,07,14,05,40,14.90
2016,07,14,05,41,14.90
2016,07,14,05,42,14.80
2016,07,14,05,43,14.80
2016,07,14,05,44,14.80
2016,07,14,05,45,14.80
2016,07,14,05,46,14.80
2016,07,14,05,47,14.80
2016,07,14,05,48,14.80
2016,07,14,05,49,14.80
2016,07,14,05,50,14.90
2016,07,14,05,51,14.90
2016,07,14,05,52,14.90
2016,07,14,05,53,14.90
2016,07,14,05,54,14.90
2016,07,14,05,55,14.90
2016,07,14,05,56,14.90
2016,07,14,05,57,15.00
2016,07,14,05,58,15.00
2016,07,14,05,59,15.10
2016,07,14,06,00,15.10
2016,07,14,06,01,15.10
2016,07,14,06,02,15.10
2016,07,14,06,03,15.10
2016,07,14,06,04,15.10
2016,07,14,06,05,15.20
2016,07,14,06,06,15.20
2016,07,14,06,07,15.20
2016,07,14,06,08,15.20
2016,07,14,06,09,15.30
2016,07,14,06,10,15.30
2016,07,14,06,11,15.30
2016,07,14,06,12,15.20
2016,07,14,06,13,15.20
2016,07,14,06,14,15.20
2016,07,14,06,15,15.20
2016,07,14,06,16,15.20
2016,07,14,06,17,15.20
2016,07,14,06,18,15.30
2016,07,14,06,19,15.30
2016,07,14,06,20,15.30
2016,07,14,06,21,15.40
2016,07,14,06,22,15.40
2016,07,14,06,23,15.40
2016,07,14,06,24,15.50
2016,07,14,06,25,15.50
2016,07,14,06,26,15.60
2016,07,14,06,27,15.60
2016,07,14,06,28,15.60
2016,07,14,06,29,15.70
2016,07,14,06,30,15.70
2016,07,14,06,31,15.70
2016,07,14,06,32,15.70
2016,07,14,06,33,15.70
2016,07,14,06,34,15.80
2016,07,14,06,35,15.80
2016,07,14,06,36,15.80
2016,07,14,06,37,15.90
2016,07,14,06,38,15.90
2016,07,14,06,39,15.90
2016,07,14,06,40,15.90
2016,07,14,06,41,16.00
2016,07,14,06,42,16.00
2016,07,14,06,43,16.10
2016,07,14,06,44,16.10
2016,07,14,06,45,16.10
2016,07,14,06,46,16.10
2016,07,14,06,47,16.10
2016,07,14,06,48,16.10
2016,07,14,06,49,16.10
2016,07,14,06,50,16.10
2016,07,14,06,51,16.10
2016,07,14,06,52,16.10
2016,07,14,06,53,16.10
2016,07,14,06,54,16.10
2016,07,14,06,55,16.10
2016,07,14,06,56,16.10
2016,07,14,06,57,16.10
2016,07,14,06,58,16.10
2016,07,14,06,59,16.10
2016,07,14,07,00,16.10
2016,07,14,07,01,16.20
2016,07,14,07,02,16.20
2016,07,14,07,03,16.20
2016,07,14,07,04,16.20
2016,07,14,07,05,16.20
2016,07,14,07,06,16.20
2016,07,14,07,07,16.20
2016,07,14,07,08,16.20
2016,07,14,07,09,16.20
2016,07,14,07,10,16.20
2016,07,14,07,11,16.20
2016,07,14,07,12,16.20
2016,07,14,07,13,16.30
2016,07,14,07,14,16.30
2016,07,14,07,15,16.30
2016,07,14,07,16,16.30
2016,07,14,07,17,16.30
2016,07,14,07,18,16.30
2016,07,14,07,19,16.30
2016,07,14,07,20,16.30
2016,07,14,07,21,16.30
2016,07,14,07,22,16.30
2016,07,14,07,23,16.30
2016,07,14,07,24,16.40
2016,07,14,07,25,16.40
2016,07,14,07,26,16.40
2016,07,14,07,27,16.40
2016,07,14,07,28,16.40
2016,07,14,07,29,16.50
2016,07,14,07,30,16.50
2016,07,14,07,31,16.50
2016,07,14,07,32,16.60
2016,07,14,07,33,16.60
2016,07,14,07,34,16.70
2016,07,14,07,35,16.70
2016,07,14,07,36,16.70
2016,07,14,07,37,16.80
2016,07,14,07,38,16.80
2016,07,14,07,39,16.80
2016,07,14,07,40,16.90
2016,07,14,07,41,16.90
2016,07,14,07,42,16.90
2016,07,14,07,43,16.90
2016,07,14,07,44,16.90
2016,07,14,07,45,16.90
2016,07,14,07,46,16.80
2016,07,14,07,47,16.80
2016,07,14,07,48,16.80
2016,07,14,07,49,16.80
2016,07,14,07,50,16.80
2016,07,14,07,51,16.70
2016,07,14,07,52,16.70
2016,07,14,07,53,16.70
2016,07,14,07,54,16.70
2016,07,14,07,55,16.70
2016,07,14,07,56,16.70
2016,07,14,07,57,16.70
2016,07,14,07,58,16.70
2016,07,14,07,59,16.70
2016,07,14,08,00,16.70
2016,07,14,08,01,16.70
2016,07,14,08,02,16.70
2016,07,14,08,03,16.70
2016,07,14,08,04,16.80
2016,07,14,08,05,16.80
2016,07,14,08,06,16.90
2016,07,14,08,07,16.90
2016,07,14,08,08,17.00
2016,07,14,08,09,17.00
2016,07,14,08,10,17.10
2016,07,14,08,11,17.10
2016,07,14,08,12,17.10
2016,07,14,08,13,17.20
2016,07,14,08,14,17.20
2016,07,14,08,15,17.20
2016,07,14,08,16,17.30
2016,07,14,08,17,17.30
2016,07,14,08,18,17.30
2016,07,14,08,19,17.40
2016,07,14,08,20,17.40
2016,07,14,08,21,17.50
2016,07,14,08,22,17.50
2016,07,14,08,23,17.60
2016,07,14,08,24,17.60
2016,07,14,08,25,17.70
2016,07,14,08,26,17.70
2016,07,14,08,27,17.80
2016,07,14,08,28,17.80
2016,07,14,08,29,17.80
2016,07,14,08,30,17.80
2016,07,14,08,31,17.80
2016,07,14,08,32,17.80
2016,07,14,08,33,17.80
2016,07,14,08,34,17.80
2016,07,14,08,35,17.80
2016,07,14,08,36,17.80
2016,07,14,08,37,17.90
2016,07,14,08,38,17.90
2016,07,14,08,39,17.90
2016,07,14,08,40,17.90
2016,07,14,08,41,17.90
2016,07,14,08,42,17.90
2016,07,14,08,43,17.90
2016,07,14,08,44,17.90
2016,07,14,08,45,17.90
2016,07,14,08,46,17.90
2016,07,14,08,47,17.90
2016,07,14,08,48,17.80
2016,07,14,08,49,17.80
2016,07,14,08,50,17.80
2016,07,14,08,51,17.80
2016,07,14,08,52,17.80
2016,07,14,08,53,17.80
2016,07,14,08,54,17.80
2016,07,14,08,55,17.90
2016,07,14,08,56,17.90
2016,07,14,08,57,17.90
2016,07,14,08,58,17.90
2016,07,14,08,59,17.90
2016,07,14,09,00,17.90
2016,07,14,09,01,17.90
2016,07,14,09,02,17.90
2016,07,14,09,03,17.90
2016,07,14,09,04,17.90
2016,07,14,09,05,17.90
2016,07,14,09,06,17.90
2016,07,14,09,07,17.90
2016,07,14,09,08,17.80
2016,07,14,09,09,17.80
2016,07,14,09,10,17.80
2016,07,14,09,11,17.80
2016,07,14,09,12,17.80
2016,07,14,09,13,17.80
2016,07,14,09,14,17.80
2016,07,14,09,15,17.80
2016,07,14,09,16,17.80
2016,07,14,09,17,17.80
2016,07,14,09,18,17.70
2016,07,14,09,19,17.70
2016,07,14,09,20,17.70
2016,07,14,09,21,17.70
2016,07,14,09,22,17.70
2016,07,14,09,23,17.70
2016,07,14,09,24,17.70
2016,07,14,09,25,17.70
2016,07,14,09,26,17.70
2016,07,14,09,27,17.60
2016,07,14,09,28,17.60
2016,07,14,09,29,17.60
2016,07,14,09,30,17.60
2016,07,14,09,31,17.60
2016,07,14,09,32,17.60
2016,07,14,09,33,17.60
2016,07,14,09,34,17.60
2016,07,14,09,35,17.60
2016,07,14,09,36,17.50
2016,07,14,09,37,17.50
2016,07,14,09,38,17.50
2016,07,14,09,39,17.50
2016,07,14,09,40,17.60
2016,07,14,09,41,17.60
2016,07,14,09,42,17.60
2016,07,14,09,43,17.60
2016,07,14,09,44,17.70
2016,07,14,09,45,17.80
2016,07,14,09,46,17.80
2016,07,14,09,47,17.80
2016,07,14,09,48,17.80
2016,07,14,09,49,17.80
2016,07,14,09,50,17.90
2016,07,14,09,51,18.00
2016,07,14,09,52,18.00
2016,07,14,09,53,18.10
2016,07,14,09,54,18.20
2016,07,14,09,55,18.20
2016,07,14,09,56,18.20
2016,07,14,09,57,18.30
2016,07,14,09,58,18.30
2016,07,14,09,59,18.30
2016,07,14,10,00,18.30
2016,07,14,10,01,18.20
2016,07,14,10,02,18.20
2016,07,14,10,03,18.30
2016,07,14,10,04,18.30
2016,07,14,10,05,18.30
2016,07,14,10,06,18.30
2016,07,14,10,07,18.30
2016,07,14,10,08,18.30
2016,07,14,10,09,18.30
2016,07,14,10,10,18.20
2016,07,14,10,11,18.20
2016,07,14,10,12,18.20
2016,07,14,10,13,18.20
2016,07,14,10,14,18.20
2016,07,14,10,15,18.20
2016,07,14,10,16,18.30
2016,07,14,10,17,18.30
2016,07,14,10,18,18.40
2016,07,14,10,19,18.40
2016,07,14,10,20,18.50
2016,07,14,10,21,18.50
2016,07,14,10,22,18.50
2016,07,14,10,23,18.60
2016,07,14,10,24,18.60
2016,07,14,10,25,18.70
2016,07,14,10,26,18.70
2016,07,14,10,27,18.70
2016,07,14,10,28,18.60
2016,07,14,10,29,18.60
2016,07,14,10,30,18.60
2016,07,14,10,31,18.60
2016,07,14,10,32,18.60
2016,07,14,10,33,18.60
2016,07,14,10,34,18.60
2016,07,14,10,35,18.60
2016,07,14,10,36,18.60
2016,07,14,10,37,18.50
2016,07,14,10,38,18.50
2016,07,14,10,39,18.60
2016,07,14,10,40,18.60
2016,07,14,10,41,18.60
2016,07,14,10,42,18.60
2016,07,14,10,43,18.70
2016,07,14,10,44,18.70
2016,07,14,10,45,18.80
2016,07,14,10,46,18.80
2016,07,14,10,47,18.80
2016,07,14,10,48,18.80
2016,07,14,10,49,18.80
2016,07,14,10,50,18.70
2016,07,14,10,51,18.70
2016,07,14,10,52,18.70
2016,07,14,10,53,18.70
2016,07,14,10,54,18.80
2016,07,14,10,55,18.80
2016,07,14,10,56,18.90
2016,07,14,10,57,19.00
2016,07,14,10,58,19.10
2016,07,14,10,59,19.10
2016,07,14,11,00,19.20
2016,07,14,11,01,19.30
2016,07,14,11,02,19.20
2016,07,14,11,03,19.20
2016,07,14,11,04,19.20
2016,07,14,11,05,19.10
2016,07,14,11,06,19.10
2016,07,14,11,07,19.00
2016,07,14,11,08,19.00
2016,07,14,11,09,19.00
2016,07,14,11,10,19.00
2016,07,14,11,11,18.90
2016,07,14,11,12,18.90
2016,07,14,11,13,18.90
2016,07,14,11,14,18.90
2016,07,14,11,15,18.90
2016,07,14,11,16,18.90
2016,07,14,11,17,18.90
2016,07,14,11,18,19.00
2016,07,14,11,19,19.00
2016,07,14,11,20,19.10
2016,07,14,11,21,19.20
2016,07,14,11,22,19.20
2016,07,14,11,23,19.20
2016,07,14,11,24,19.30
2016,07,14,11,25,19.30
2016,07,14,11,26,19.30
2016,07,14,11,27,19.30
2016,07,14,11,28,19.30
2016,07,14,11,29,19.30
2016,07,14,11,30,19.40
2016,07,14,11,31,19.40
2016,07,14,11,32,19.50
2016,07,14,11,33,19.60
2016,07,14,11,34,19.60
2016,07,14,11,35,19.60
2016,07,14,11,36,19.60
2016,07,14,11,37,19.60
2016,07,14,11,38,19.70
2016,07,14,11,39,19.60
2016,07,14,11,40,19.50
2016,07,14,11,41,19.40
2016,07,14,11,42,19.30
2016,07,14,11,43,19.30
2016,07,14,11,44,19.30
2016,07,14,11,45,19.30
2016,07,14,11,46,19.40
2016,07,14,11,47,19.40
2016,07,14,11,48,19.50
2016,07,14,11,49,19.60
2016,07,14,11,50,19.70
2016,07,14,11,51,19.70
2016,07,14,11,52,19.70
2016,07,14,11,53,19.70
2016,07,14,11,54,19.70
2016,07,14,11,55,19.60
2016,07,14,11,56,19.60
2016,07,14,11,57,19.50
2016,07,14,11,58,19.60
2016,07,14,11,59,19.60
2016,07,14,12,00,19.60
2016,07,14,12,01,19.60
2016,07,14,12,02,19.60
2016,07,14,12,03,19.70
2016,07,14,12,04,19.70
2016,07,14,12,05,19.70
2016,07,14,12,06,19.70
2016,07,14,12,07,19.70
2016,07,14,12,08,19.80
2016,07,14,12,09,19.80
2016,07,14,12,10,19.90
2016,07,14,12,11,19.90
2016,07,14,12,12,19.90
2016,07,14,12,13,19.90
2016,07,14,12,14,19.90
2016,07,14,12,15,19.80
2016,07,14,12,16,19.70
2016,07,14,12,17,19.70
2016,07,14,12,18,19.60
2016,07,14,12,19,19.50
2016,07,14,12,20,19.50
2016,07,14,12,21,19.40
2016,07,14,12,22,19.30
2016,07,14,12,23,19.30
2016,07,14,12,24,19.20
2016,07,14,12,25,19.20
2016,07,14,12,26,19.20
2016,07,14,12,27,19.20
2016,07,14,12,28,19.20
2016,07,14,12,29,19.20
2016,07,14,12,30,19.20
2016,07,14,12,31,19.20
2016,07,14,12,32,19.20
2016,07,14,12,33,19.20
2016,07,14,12,34,19.20
2016,07,14,12,35,19.20
2016,07,14,12,36,19.20
2016,07,14,12,37,19.20
2016,07,14,12,38,19.20
2016,07,14,12,39,19.20
2016,07,14,12,40,19.20
2016,07,14,12,41,19.20
2016,07,14,12,42,19.10
2016,07,14,12,43,19.10
2016,07,14,12,44,19.10
2016,07,14,12,45,19.10
2016,07,14,12,46,19.10
2016,07,14,12,47,19.00
2016,07,14,12,48,19.00
2016,07,14,12,49,19.00
2016,07,14,12,50,19.00
2016,07,14,12,51,19.00
2016,07,14,12,52,19.10
2016,07,14,12,53,19.20
2016,07,14,12,54,19.30
2016,07,14,12,55,19.40
2016,07,14,12,56,19.40
2016,07,14,12,57,19.50
2016,07,14,12,58,19.60
2016,07,14,12,59,19.70
2016,07,14,13,00,19.60
2016,07,14,13,01,19.50
2016,07,14,13,02,19.40
2016,07,14,13,03,19.30
2016,07,14,13,04,19.20
2016,07,14,13,05,19.20
2016,07,14,13,06,19.20
2016,07,14,13,07,19.10
2016,07,14,13,08,19.10
2016,07,14,13,09,19.10
2016,07,14,13,10,19.00
2016,07,14,13,11,19.00
2016,07,14,13,12,18.90
2016,07,14,13,13,18.90
2016,07,14,13,14,18.80
2016,07,14,13,15,18.80
2016,07,14,13,16,18.80
2016,07,14,13,17,18.80
2016,07,14,13,18,18.70
2016,07,14,13,19,18.70
2016,07,14,13,20,18.70
2016,07,14,13,21,18.80
2016,07,14,13,22,18.80
2016,07,14,13,23,18.80
2016,07,14,13,24,18.80
2016,07,14,13,25,18.70
2016,07,14,13,26,18.80
2016,07,14,13,27,18.80
2016,07,14,13,28,18.90
2016,07,14,13,29,19.00
2016,07,14,13,30,19.10
2016,07,14,13,31,19.20
2016,07,14,13,32,19.20
2016,07,14,13,33,19.30
2016,07,14,13,34,19.40
2016,07,14,13,35,19.40
2016,07,14,13,36,19.40
2016,07,14,13,37,19.40
2016,07,14,13,38,19.40
2016,07,14,13,39,19.50
2016,07,14,13,40,19.60
2016,07,14,13,41,19.60
2016,07,14,13,42,19.70
2016,07,14,13,43,19.70
2016,07,14,13,44,19.70
2016,07,14,13,45,19.70
2016,07,14,13,46,19.70
2016,07,14,13,47,19.60
2016,07,14,13,48,19.60
2016,07,14,13,49,19.60
2016,07,14,13,50,19.60
2016,07,14,13,51,19.60
2016,07,14,13,52,19.60
2016,07,14,13,53,19.60
2016,07,14,13,54,19.60
2016,07,14,13,55,19.60
2016,07,14,13,56,19.60
2016,07,14,13,57,19.60
2016,07,14,13,58,19.50
2016,07,14,13,59,19.50
2016,07,14,14,00,19.40
2016,07,14,14,01,19.40
2016,07,14,14,02,19.30
2016,07,14,14,03,19.30
2016,07,14,14,04,19.30
2016,07,14,14,05,19.30
2016,07,14,14,06,19.30
2016,07,14,14,07,19.20
2016,07,14,14,08,19.30
2016,07,14,14,09,19.30
2016,07,14,14,10,19.30
2016,07,14,14,11,19.30
2016,07,14,14,12,19.30
2016,07,14,14,13,19.30
2016,07,14,14,14,19.20
2016,07,14,14,15,19.10
2016,07,14,14,16,19.00
2016,07,14,14,17,18.90
2016,07,14,14,18,18.80
2016,07,14,14,19,18.70
2016,07,14,14,20,18.60
2016,07,14,14,21,18.50
2016,07,14,14,22,18.40
2016,07,14,14,23,18.40
2016,07,14,14,24,18.30
2016,07,14,14,25,18.10
2016,07,14,14,26,18.00
2016,07,14,14,27,17.90
2016,07,14,14,28,17.70
2016,07,14,14,29,17.60
2016,07,14,14,30,17.50
2016,07,14,14,31,17.50
2016,07,14,14,32,17.30
2016,07,14,14,33,17.30
2016,07,14,14,34,17.20
2016,07,14,14,35,17.10
2016,07,14,14,36,17.00
2016,07,14,14,37,16.90
2016,07,14,14,38,16.80
2016,07,14,14,39,16.70
2016,07,14,14,40,16.50
2016,07,14,14,41,16.40
2016,07,14,14,42,16.40
2016,07,14,14,43,16.30
2016,07,14,14,44,16.30
2016,07,14,14,45,16.20
2016,07,14,14,46,16.10
2016,07,14,14,47,16.10
2016,07,14,14,48,16.00
2016,07,14,14,49,16.00
2016,07,14,14,50,15.90
2016,07,14,14,51,15.90
2016,07,14,14,52,15.90
2016,07,14,14,53,15.90
2016,07,14,14,54,15.90
2016,07,14,14,55,15.80
2016,07,14,14,56,15.80
2016,07,14,14,57,15.90
2016,07,14,14,58,15.90
2016,07,14,14,59,15.90
2016,07,14,15,00,15.90
2016,07,14,15,01,15.90
2016,07,14,15,02,15.90
2016,07,14,15,03,15.90
2016,07,14,15,04,15.90
2016,07,14,15,05,15.90
2016,07,14,15,06,15.90
2016,07,14,15,07,15.90
2016,07,14,15,08,15.90
2016,07,14,15,09,15.90
2016,07,14,15,10,15.90
2016,07,14,15,11,16.00
2016,07,14,15,12,16.00
2016,07,14,15,13,16.00
2016,07,14,15,14,16.00
2016,07,14,15,15,16.00
2016,07,14,15,16,16.00
2016,07,14,15,17,16.00
2016,07,14,15,18,15.90
2016,07,14,15,19,15.80
2016,07,14,15,20,15.80
2016,07,14,15,21,15.80
2016,07,14,15,22,15.80
2016,07,14,15,23,15.70
2016,07,14,15,24,15.70
2016,07,14,15,25,15.60
2016,07,14,15,26,15.60
2016,07,14,15,27,15.50
2016,07,14,15,28,15.50
2016,07,14,15,29,15.40
2016,07,14,15,30,15.40
2016,07,14,15,31,15.30
2016,07,14,15,32,15.30
2016,07,14,15,33,15.20
2016,07,14,15,34,15.20
2016,07,14,15,35,15.20
2016,07,14,15,36,15.20
2016,07,14,15,37,15.20
2016,07,14,15,38,15.20
2016,07,14,15,39,15.10
2016,07,14,15,40,15.10
2016,07,14,15,41,15.10
2016,07,14,15,42,15.10
2016,07,14,15,43,15.10
2016,07,14,15,44,15.10
2016,07,14,15,45,15.10
2016,07,14,15,46,15.10
2016,07,14,15,47,15.10
2016,07,14,15,48,15.00
2016,07,14,15,49,15.00
2016,07,14,15,50,14.90
2016,07,14,15,51,14.90
2016,07,14,15,52,14.80
2016,07,14,15,53,14.80
2016,07,14,15,54,14.80
2016,07,14,15,55,14.80
2016,07,14,15,56,14.80
2016,07,14,15,57,14.80
2016,07,14,15,58,14.70
2016,07,14,15,59,14.70
2016,07,14,16,00,14.60
2016,07,14,16,01,14.60
2016,07,14,16,02,14.50
2016,07,14,16,03,14.50
2016,07,14,16,04,14.40
2016,07,14,16,05,14.40
2016,07,14,16,06,14.40
2016,07,14,16,07,14.30
2016,07,14,16,08,14.30
2016,07,14,16,09,14.30
2016,07,14,16,10,14.20
2016,07,14,16,11,14.20
2016,07,14,16,12,14.20
2016,07,14,16,13,14.10
2016,07,14,16,14,14.10
2016,07,14,16,15,14.10
2016,07,14,16,16,14.10
2016,07,14,16,17,14.10
2016,07,14,16,18,14.10
2016,07,14,16,19,14.10
2016,07,14,16,20,14.10
2016,07,14,16,21,14.10
2016,07,14,16,22,14.10
2016,07,14,16,23,14.10
2016,07,14,16,24,14.20
2016,07,14,16,25,14.10
2016,07,14,16,26,14.10
2016,07,14,16,27,14.20
2016,07,14,16,28,14.20
2016,07,14,16,29,14.20
2016,07,14,16,30,14.30
2016,07,14,16,31,14.20
2016,07,14,16,32,14.20
2016,07,14,16,33,14.20
2016,07,14,16,34,14.20
2016,07,14,16,35,14.20
2016,07,14,16,36,14.20
2016,07,14,16,37,14.20
2016,07,14,16,38,14.20
2016,07,14,16,39,14.20
2016,07,14,16,40,14.20
2016,07,14,16,41,14.20
2016,07,14,16,42,14.30
2016,07,14,16,43,14.30
2016,07,14,16,44,14.40
2016,07,14,16,45,14.40
2016,07,14,16,46,14.40
2016,07,14,16,47,14.50
2016,07,14,16,48,14.50
2016,07,14,16,49,14.60
2016,07,14,16,50,14.60
2016,07,14,16,51,14.70
2016,07,14,16,52,14.70
2016,07,14,16,53,14.80
2016,07,14,16,54,14.80
2016,07,14,16,55,14.80
2016,07,14,16,56,14.90
2016,07,14,16,57,14.90
2016,07,14,16,58,14.90
2016,07,14,16,59,14.90
2016,07,14,17,00,15.00
2016,07,14,17,01,15.00
2016,07,14,17,02,15.10
2016,07,14,17,03,15.20
2016,07,14,17,04,15.20
2016,07,14,17,05,15.30
2016,07,14,17,06,15.30
2016,07,14,17,07,15.40
2016,07,14,17,08,15.40
2016,07,14,17,09,15.40
2016,07,14,17,10,15.50
2016,07,14,17,11,15.50
2016,07,14,17,12,15.60
2016,07,14,17,13,15.60
2016,07,14,17,14,15.70
2016,07,14,17,15,15.70
2016,07,14,17,16,15.70
2016,07,14,17,17,15.80
2016,07,14,17,18,15.80
2016,07,14,17,19,15.80